Location: Rioux
(40.7500°S, 175.7500°E)
Time: 10:22:00
(UTC+00:00)

CZ-2C R/B - Pass Details

Date: 12 June 2024
Orbit: 462 x 506 km, 97.8° (Epoch: 20 July)

Event Time Altitude Azimuth Distance (km) Brightness Sun altitude
Rises 17:40:10 0° 31° (NNE) 2,610 6.9 -21.6°
Reaches altitude 10° 17:42:19 10° 39° (NE) 1,739 6.1 -21.2°
Maximum altitude 17:45:49 38° 108° (ESE) 803 4.1 -20.6°
Drops below altitude 10° 17:49:24 10° 177° (S) 1,776 5.3 -19.9°
Enters shadow 17:49:44 - 178° (S) 1,908 5.4 -19.9°
